TimeCDT,TemperatureF,Dew PointF,Humidity,Sea Level PressureIn,VisibilityMPH,Wind Direction,Wind SpeedMPH,Gust SpeedMPH,PrecipitationIn,Events,Conditions,WindDirDegrees,DateUTC
12:55 AM,70.5,67.1,89,30.15,10.0,NE,4.6,-,N/A,,Clear,50,2012-10-05 05:55:00
1:55 AM,68.7,65.1,88,30.15,10.0,ENE,4.6,-,N/A,,Clear,60,2012-10-05 06:55:00
2:55 AM,66.9,63.9,90,30.14,10.0,NE,5.8,-,N/A,,Clear,50,2012-10-05 07:55:00
3:55 AM,66.0,63.1,90,30.13,10.0,NE,4.6,-,N/A,,Clear,50,2012-10-05 08:55:00
4:55 AM,65.7,62.6,90,30.13,10.0,NNE,3.5,-,N/A,,Clear,30,2012-10-05 09:55:00
5:55 AM,65.1,62.1,90,30.14,10.0,NNE,4.6,-,N/A,,Clear,20,2012-10-05 10:55:00
6:55 AM,64.8,61.7,90,30.14,10.0,NNE,4.6,-,N/A,,Clear,30,2012-10-05 11:55:00
7:55 AM,66.2,62.6,88,30.15,10.0,NE,6.9,-,N/A,,Clear,40,2012-10-05 12:55:00
8:55 AM,69.8,64.4,83,30.14,10.0,NE,4.6,-,N/A,,Clear,50,2012-10-05 13:55:00
9:55 AM,75.2,66.2,73,30.15,10.0,NE,4.6,-,N/A,,Clear,40,2012-10-05 14:55:00
10:55 AM,80.6,66.2,61,30.13,10.0,ESE,5.8,-,N/A,,Clear,110,2012-10-05 15:55:00
11:55 AM,82.4,66.2,58,30.13,10.0,ENE,6.9,-,N/A,,Clear,60,2012-10-05 16:55:00
12:55 PM,84.2,64.4,51,30.10,10.0,SSE,3.5,-,N/A,,Clear,160,2012-10-05 17:55:00
1:55 PM,84.2,68.0,58,30.07,10.0,South,9.2,-,N/A,,Clear,190,2012-10-05 18:55:00
2:55 PM,82.8,68.9,63,30.04,10.0,Variable,5.8,-,N/A,,Clear,0,2012-10-05 19:55:00
3:55 PM,82.4,70.3,67,30.02,10.0,South,8.1,-,N/A,,Clear,180,2012-10-05 20:55:00
4:55 PM,81.5,70.0,68,30.01,10.0,SSW,8.1,-,N/A,,Clear,200,2012-10-05 21:55:00
5:55 PM,79.3,70.5,74,30.01,10.0,South,8.1,-,N/A,,Clear,180,2012-10-05 22:55:00
6:55 PM,75.7,70.3,83,30.02,10.0,Calm,Calm,-,N/A,,Clear,0,2012-10-05 23:55:00
7:55 PM,75.2,70.7,86,30.02,10.0,SW,3.5,-,N/A,,Clear,230,2012-10-06 00:55:00
8:55 PM,75.2,71.1,87,30.02,10.0,Calm,Calm,-,N/A,,Clear,0,2012-10-06 01:55:00
9:55 PM,73.4,71.6,94,30.03,10.0,Calm,Calm,-,N/A,,Clear,0,2012-10-06 02:55:00
10:55 PM,72.3,70.9,95,30.03,10.0,Calm,Calm,-,N/A,,Clear,0,2012-10-06 03:55:00
11:55 PM,72.0,70.7,96,30.03,10.0,Calm,Calm,-,N/A,,Clear,0,2012-10-06 04:55:00